コワルスキー彗星

C/2014 U3 ( Kowalski )

English version
Home page
Updated on March 15, 2015

---------------------------------------------------------------------

・ プロフィール

発見日 2014年10月26日
発見光度 19.6等
発見者 R. A. Kowalski (Catalina Sky Survey)

・ 写真集

・ 軌道要素

Epoch 2014 Sept. 20.0 TT = JDT 2456920.5
T 2014 Sept. 3.50879 TT                                 MPCW
q   2.5583883            (2000.0)            P               Q
z  +0.0012222      Peri.   51.30313     -0.40311984     +0.90609808
 +/-0.0001316      Node   163.57850     +0.63313073     +0.17484446
e   0.9968731      Incl.  152.99241     +0.66078732     +0.38524757
From 41 observations 2014 Oct. 26-Dec. 26, mean residual 0".6.

・ 光度変化

        m1 = 13.0 + 5 logΔ + 10.0 log r

---------------------------------------------------------------------

軌道要素はM.P.E.C. 2015-A04に掲載されたものです。
光度グラフはComet for Windowsで作成したものです。

---------------------------------------------------------------------

Copyright(C) Seiichi Yoshida (comet@aerith.net). All rights reserved.